When you browse on this site, cookies collect data to enhance your experience and personalize the content and advertising you see.
Visit our Privacy Policy to learn more. By continuing to use the site, you agree to this use of cookies and data.
  • In Schweiz
  • Länderverzeichnis
  • Für 7 Tage
  • Wassertemperatur
  • Wetterkarte
  • Widgets
  • user-avatar
    Anmelden

    Stündliche Wetter Inverness

    Heute, 5 April, Sonntag

    Zeit Temperatur Niederschläge Wind Luftdruck Luftfeuchtigkeit
    00:00 +4°C° 0 mm 2 m/S 753 mmHg 91%
    01:00 +4°C° 0 mm 2 m/S 753 mmHg 91%
    02:00 +4°C° 0 mm 2 m/S 752 mmHg 92%
    03:00 +4°C° 0 mm 2 m/S 752 mmHg 93%
    04:00 +4°C° 0 mm 2 m/S 752 mmHg 93%
    05:00 +4°C° 0 mm 2 m/S 752 mmHg 93%
    06:00 +4°C° 0 mm 2 m/S 752 mmHg 92%
    07:00 +6°C° 0 mm 2 m/S 751 mmHg 86%
    08:00 +7°C° 0 mm 3 m/S 751 mmHg 79%
    09:00 +9°C° 0 mm 3 m/S 751 mmHg 72%
    10:00 +10°C° 0 mm 4 m/S 750 mmHg 68%
    11:00 +12°C° 0 mm 5 m/S 750 mmHg 63%
    12:00 +13°C° 0 mm 6 m/S 749 mmHg 58%
    13:00 +13°C° 0 mm 6 m/S 749 mmHg 57%
    14:00 +14°C° 0 mm 6 m/S 748 mmHg 55%
    15:00 +14°C° 0 mm 7 m/S 747 mmHg 53%
    16:00 +14°C° 0 mm 6 m/S 746 mmHg 57%
    17:00 +14°C° 0 mm 6 m/S 745 mmHg 61%
    18:00 +14°C° 0 mm 5 m/S 745 mmHg 65%
    19:00 +13°C° 0 mm 5 m/S 744 mmHg 69%
    20:00 +13°C° 0 mm 6 m/S 744 mmHg 72%
    21:00 +13°C° 0 mm 6 m/S 743 mmHg 76%
    22:00 +11°C° 0.1 mm 6 m/S 742 mmHg 78%
    23:00 +11°C° 0.1 mm 6 m/S 742 mmHg 80%

    Morgen, 6 April, Montag

    Zeit Temperatur Niederschläge Wind Luftdruck Luftfeuchtigkeit
    00:00 +11°C° 0.1 mm 6 m/S 741 mmHg 82%
    01:00 +11°C° 0.3 mm 6 m/S 741 mmHg 83%
    02:00 +12°C° 0.3 mm 5 m/S 741 mmHg 84%
    03:00 +12°C° 0.3 mm 5 m/S 741 mmHg 85%
    04:00 +9°C° 0.4 mm 5 m/S 742 mmHg 85%
    05:00 +8°C° 0.4 mm 5 m/S 743 mmHg 84%
    06:00 +7°C° 0.4 mm 5 m/S 744 mmHg 84%
    07:00 +7°C° 0 mm 6 m/S 745 mmHg 80%
    08:00 +6°C° 0 mm 7 m/S 746 mmHg 75%
    09:00 +7°C° 0 mm 8 m/S 748 mmHg 70%
    10:00 +7°C° 0.1 mm 8 m/S 749 mmHg 69%
    11:00 +7°C° 0.1 mm 8 m/S 750 mmHg 67%
    12:00 +9°C° 0.1 mm 8 m/S 751 mmHg 65%
    13:00 +9°C° 0 mm 8 m/S 753 mmHg 61%
    14:00 +9°C° 0 mm 8 m/S 754 mmHg 57%
    15:00 +9°C° 0 mm 8 m/S 755 mmHg 54%
    16:00 +8°C° 0 mm 7 m/S 756 mmHg 56%
    17:00 +7°C° 0 mm 6 m/S 757 mmHg 59%
    18:00 +7°C° 0 mm 5 m/S 758 mmHg 62%
    19:00 +6°C° 0 mm 4 m/S 759 mmHg 68%
    20:00 +5°C° 0 mm 4 m/S 760 mmHg 74%
    21:00 +3°C° 0 mm 3 m/S 761 mmHg 80%
    22:00 +3°C° 0 mm 3 m/S 762 mmHg 82%
    23:00 +3°C° 0 mm 3 m/S 763 mmHg 84%

    übermorgen, 7 April, Dienstag

    Zeit Temperatur Niederschläge Wind Luftdruck Luftfeuchtigkeit
    00:00 +3°C° 0 mm 3 m/S 763 mmHg 85%
    01:00 +3°C° 0 mm 3 m/S 763 mmHg 85%
    02:00 +3°C° 0 mm 3 m/S 764 mmHg 86%
    03:00 +2°C° 0 mm 3 m/S 764 mmHg 86%
    04:00 +3°C° 0 mm 3 m/S 764 mmHg 84%
    05:00 +3°C° 0 mm 3 m/S 764 mmHg 83%
    06:00 +3°C° 0 mm 3 m/S 764 mmHg 82%
    07:00 +5°C° 0 mm 3 m/S 764 mmHg 74%
    08:00 +6°C° 0 mm 4 m/S 764 mmHg 66%
    09:00 +8°C° 0 mm 4 m/S 764 mmHg 58%
    10:00 +8°C° 0 mm 5 m/S 764 mmHg 57%
    11:00 +9°C° 0 mm 6 m/S 764 mmHg 55%
    12:00 +10°C° 0 mm 6 m/S 764 mmHg 54%
    13:00 +10°C° 0 mm 6 m/S 764 mmHg 55%
    14:00 +10°C° 0 mm 6 m/S 763 mmHg 55%
    15:00 +10°C° 0 mm 6 m/S 763 mmHg 56%
    16:00 +10°C° 0 mm 6 m/S 763 mmHg 60%
    17:00 +9°C° 0 mm 5 m/S 763 mmHg 63%
    18:00 +9°C° 0 mm 5 m/S 763 mmHg 67%
    19:00 +8°C° 0 mm 4 m/S 762 mmHg 71%
    20:00 +8°C° 0 mm 3 m/S 762 mmHg 76%
    21:00 +8°C° 0 mm 3 m/S 762 mmHg 81%
    22:00 +8°C° 0 mm 3 m/S 762 mmHg 81%
    23:00 +7°C° 0 mm 4 m/S 762 mmHg 82%

    8 April, Mittwoch

    Zeit Temperatur Niederschläge Wind Luftdruck Luftfeuchtigkeit
    00:00 +7°C° 0 mm 4 m/S 762 mmHg 83%
    01:00 +7°C° 0.1 mm 4 m/S 762 mmHg 84%
    02:00 +7°C° 0.1 mm 4 m/S 762 mmHg 86%
    03:00 +7°C° 0.1 mm 4 m/S 763 mmHg 88%
    04:00 +8°C° 0.3 mm 3 m/S 763 mmHg 90%
    05:00 +8°C° 0.3 mm 2 m/S 763 mmHg 91%
    06:00 +8°C° 0.3 mm 2 m/S 764 mmHg 92%
    07:00 +8°C° 0.1 mm 2 m/S 764 mmHg 91%
    08:00 +7°C° 0.1 mm 2 m/S 764 mmHg 89%
    09:00 +7°C° 0.1 mm 2 m/S 764 mmHg 87%
    10:00 +8°C° 0 mm 2 m/S 765 mmHg 81%
    11:00 +9°C° 0 mm 2 m/S 765 mmHg 75%
    12:00 +10°C° 0 mm 1 m/S 766 mmHg 69%
    13:00 +10°C° 0 mm 2 m/S 766 mmHg 61%
    14:00 +10°C° 0 mm 3 m/S 766 mmHg 53%
    15:00 +11°C° 0 mm 4 m/S 766 mmHg 46%
    16:00 +10°C° 0 mm 4 m/S 767 mmHg 50%
    17:00 +9°C° 0 mm 3 m/S 767 mmHg 53%
    18:00 +8°C° 0 mm 3 m/S 767 mmHg 57%
    19:00 +5°C° 0 mm 3 m/S 767 mmHg 64%
    20:00 +5°C° 0 mm 2 m/S 768 mmHg 71%
    21:00 +4°C° 0 mm 1 m/S 768 mmHg 77%
    22:00 +4°C° 0 mm 1 m/S 768 mmHg 78%
    23:00 +4°C° 0 mm 1 m/S 769 mmHg 79%

    9 April, Donnerstag

    Zeit Temperatur Niederschläge Wind Luftdruck Luftfeuchtigkeit
    00:00 +3°C° 0 mm 1 m/S 769 mmHg 80%
    01:00 +3°C° 0 mm 1 m/S 769 mmHg 80%
    02:00 +3°C° 0 mm 1 m/S 769 mmHg 80%
    03:00 +3°C° 0 mm 1 m/S 769 mmHg 80%
    04:00 +3°C° 0 mm 1 m/S 769 mmHg 78%
    05:00 +3°C° 0 mm 1 m/S 769 mmHg 77%
    06:00 +2°C° 0 mm 0 m/S 769 mmHg 76%
    07:00 +5°C° 0 mm 1 m/S 769 mmHg 72%
    08:00 +6°C° 0 mm 1 m/S 769 mmHg 67%
    09:00 +7°C° 0 mm 2 m/S 769 mmHg 63%
    10:00 +8°C° 0 mm 2 m/S 769 mmHg 61%
    11:00 +9°C° 0 mm 2 m/S 769 mmHg 60%
    12:00 +10°C° 0 mm 3 m/S 768 mmHg 58%
    13:00 +10°C° 0 mm 3 m/S 768 mmHg 59%
    14:00 +10°C° 0 mm 2 m/S 767 mmHg 60%
    15:00 +12°C° 0 mm 2 m/S 767 mmHg 61%
    16:00 +10°C° 0 mm 2 m/S 767 mmHg 65%
    17:00 +9°C° 0 mm 2 m/S 766 mmHg 70%
    18:00 +10°C° 0 mm 1 m/S 766 mmHg 74%
    19:00 +8°C° 0 mm 1 m/S 765 mmHg 78%
    20:00 +7°C° 0 mm 1 m/S 765 mmHg 83%
    21:00 +6°C° 0 mm 1 m/S 765 mmHg 87%
    22:00 +5°C° 0 mm 2 m/S 764 mmHg 88%
    23:00 +4°C° 0 mm 2 m/S 764 mmHg 88%

    10 April, Freitag

    Zeit Temperatur Niederschläge Wind Luftdruck Luftfeuchtigkeit
    00:00 +4°C° 0 mm 2 m/S 764 mmHg 89%
    01:00 +6°C° 0 mm 1 m/S 763 mmHg 89%
    02:00 +7°C° 0 mm 1 m/S 762 mmHg 88%
    03:00 +7°C° 0 mm 1 m/S 761 mmHg 88%
    04:00 +7°C° 0.2 mm 1 m/S 761 mmHg 90%
    05:00 +8°C° 0.2 mm 1 m/S 760 mmHg 91%
    06:00 +8°C° 0.2 mm 1 m/S 760 mmHg 93%
    07:00 +9°C° 0 mm 1 m/S 760 mmHg 90%
    08:00 +9°C° 0 mm 2 m/S 759 mmHg 86%
    09:00 +12°C° 0 mm 2 m/S 759 mmHg 83%
    10:00 +13°C° 0 mm 2 m/S 759 mmHg 79%
    11:00 +13°C° 0 mm 3 m/S 758 mmHg 74%
    12:00 +16°C° 0 mm 3 m/S 758 mmHg 70%
    13:00 +14°C° 0.2 mm 3 m/S 758 mmHg 74%
    14:00 +14°C° 0.2 mm 2 m/S 757 mmHg 79%
    15:00 +14°C° 0.2 mm 2 m/S 757 mmHg 83%
    16:00 +14°C° 0 mm 2 m/S 757 mmHg 84%
    17:00 +13°C° 0 mm 2 m/S 757 mmHg 85%
    18:00 +13°C° 0 mm 2 m/S 756 mmHg 87%
    19:00 +12°C° 0.1 mm 2 m/S 756 mmHg 89%
    20:00 +12°C° 0.1 mm 2 m/S 756 mmHg 91%
    21:00 +10°C° 0.1 mm 2 m/S 756 mmHg 93%
    22:00 +10°C° 0.1 mm 2 m/S 756 mmHg 93%
    23:00 +10°C° 0.1 mm 2 m/S 756 mmHg 93%
    Mehr zeigen